[[{"header":{"parameterUnit":"m.s-1","parameterCategory":1,"la1":30.2991,"la2":30.254,"lo1":-89.0895,"lo2":-89.0444,"dy":0.0017,"dx":0.0017,"nx":28,"ny":28,"refTime":"2024-11-23T09:00:00:Z","depth":0,"parameterNumber":2,"parameterNumberName":"U-component_of_WINDS"},"data":[0,0,0,0,0,0,0,0,0,0,0,0,0,0,0,0,0,0,0,0,0,0,0,0,0,0,0,0,0,0,0,0,0,0,0,0,0,0,0,0,0,0,0,0,0,0,0,0,0,0,0,0,0,0,0,0,0,0,-1.6352,-1.6352,0,-1.6335,-1.6335,-1.6334,-1.6286,-1.6285,-1.6284,-1.6283,-1.6267,-1.6267,-1.6268,0,0,0,0,0,0,0,0,0,0,0,0,0,-1.6345,-1.6345,-1.6352,-1.6352,-1.6351,-1.6335,-1.6335,-1.6334,-1.6286,-1.6285,-1.6284,-1.6283,-1.6266,-1.6267,-1.6268,0,0,0,0,0,0,0,0,0,0,0,0,0,-1.634,-1.6345,-1.6352,-1.6325,-1.6323,-1.6335,-1.6335,-1.6334,-1.6287,-1.6285,-1.6284,-1.6282,-1.6266,-1.6267,-1.6268,-1.6304,0,0,-1.627,-1.6271,0,0,0,0,0,0,0,0,-1.634,-1.634,-1.633,-1.6327,-1.6324,-1.6311,-1.6326,-1.6324,-1.6287,-1.63,-1.6283,-1.6281,-1.6283,-1.6282,-1.6282,-1.6303,-1.6303,-1.627,-1.6271,-1.6271,-1.6271,0,0,0,0,0,0,0,-1.6341,-1.6341,-1.6345,-1.6329,-1.6326,-1.6315,-1.6313,-1.6325,-1.6301,-1.6299,-1.6296,-1.6294,-1.6281,-1.6282,-1.6282,-1.6302,-1.627,-1.6271,-1.6271,-1.6272,-1.6354,-1.6355,0,0,0,0,0,0,-1.6345,-1.6341,-1.6346,-1.6345,-1.6329,-1.6317,-1.6314,-1.6317,-1.63,-1.6296,-1.6296,-1.6292,-1.6281,-1.6281,-1.6281,-1.6322,-1.6271,-1.6272,-1.6272,-1.6352,-1.6354,-1.6356,0,0,0,0,0,0,-1.6345,-1.6345,-1.6346,-1.6342,-1.6341,-1.6318,-1.6322,-1.6317,-1.6318,-1.6298,-1.6293,-1.6301,-1.628,-1.628,-1.6299,-1.6321,-1.6272,-1.6273,-1.635,-1.6352,-1.6355,-1.6406,0,0,0,0,0,0,-1.6345,-1.6346,-1.6359,-1.6343,-1.6342,-1.6364,-1.6324,-1.6318,-1.6319,-1.6315,-1.6301,-1.6297,-1.6279,-1.6298,-1.63,-1.6321,-1.6274,-1.6348,-1.6351,-1.6354,-1.6402,-1.6409,-1.6416,0,0,0,0,0,-1.6345,-1.6374,-1.636,-1.636,-1.6357,-1.6365,-1.6365,-1.6342,-1.6321,-1.6334,-1.6322,-1.6298,-1.6319,-1.63,-1.6302,-1.6324,-1.6346,-1.635,-1.6354,-1.6398,-1.6408,-1.6416,0,0,0,0,0,0,-1.6393,-1.6371,-1.6355,-1.638,-1.6375,-1.6357,-1.6373,-1.6353,-1.6354,-1.6349,-1.6322,-1.6319,-1.6342,-1.6335,-1.6315,-1.6359,-1.6329,-1.6333,-1.6362,-1.6371,-1.6378,-1.6379,-1.6274,0,0,0,0,0,-1.6406,-1.6414,-1.6395,-1.6419,-1.6417,-1.6396,-1.6399,-1.6382,-1.6376,-1.6373,-1.6362,-1.6357,-1.6363,-1.6367,-1.6371,-1.6401,-1.6398,-1.6418,-1.6425,-1.6431,-1.6434,-1.645,-1.6459,-1.6368,-1.6368,-1.6368,0,0,-1.6434,-1.6423,-1.643,-1.6428,-1.6422,-1.6432,-1.6394,-1.6406,-1.6412,-1.6375,-1.6392,-1.6384,-1.6377,-1.6402,-1.6413,-1.6397,-1.6459,-1.6436,-1.6441,-1.6441,-1.6455,-1.6464,-1.6471,-1.6371,-1.637,-1.637,0,0,-1.6489,-1.6482,-1.6501,-1.6497,-1.6488,-1.6474,-1.6479,-1.6465,-1.6458,-1.6475,-1.6447,-1.6456,-1.6466,-1.6462,-1.6461,-1.6518,-1.6496,-1.652,-1.6557,-1.6573,-1.658,-1.6586,-1.6606,-1.6613,-1.6524,-1.6524,-1.6524,0,-1.6525,-1.6537,-1.6514,-1.6527,-1.6527,-1.6494,-1.6514,-1.6511,-1.6504,-1.6506,-1.6488,-1.6501,-1.6494,-1.6518,-1.6532,-1.6533,-1.6538,-1.652,-1.6581,-1.6587,-1.6592,-1.6611,-1.6618,-1.6527,-1.6527,-1.6526,-1.6526,0,-1.6582,-1.6591,-1.6607,-1.6602,-1.6604,-1.6621,-1.66,-1.6606,-1.659,-1.6578,-1.6596,-1.6587,-1.6589,-1.6594,-1.6578,-1.6616,-1.6606,-1.6586,-1.6554,-1.6604,-1.6621,-1.6628,-1.6531,-1.653,-1.6529,-1.6529,0,0,-1.6664,-1.6647,-1.6653,-1.6651,-1.664,-1.6647,-1.6663,-1.6665,-1.667,-1.6668,-1.668,-1.669,-1.6671,-1.6671,-1.6655,-1.6669,-1.6714,-1.6647,-1.6646,-1.6659,-1.6755,-1.677,-1.6779,-1.6701,-1.6702,-1.6703,-1.6756,0,-1.6716,-1.674,-1.672,-1.6749,-1.6757,-1.6728,-1.6741,-1.6737,-1.6727,-1.6733,-1.6723,-1.673,-1.6705,-1.6704,-1.6717,-1.6706,-1.6733,-1.6702,-1.6712,-1.6712,-1.6713,-1.6787,-1.6803,-1.6853,-1.6762,-1.6763,-1.6764,0,-1.6778,-1.6779,-1.6808,-1.6797,-1.6799,-1.6812,-1.6812,-1.6819,-1.6814,-1.6806,-1.6806,-1.6787,-1.6802,-1.6774,-1.6794,-1.6774,-1.6777,-1.6773,-1.6774,-1.6773,-1.674,-1.6787,-1.6868,-1.6875,-1.6774,-1.6774,-1.6773,0,-1.6835,-1.6843,-1.6862,-1.6861,-1.6848,-1.6857,-1.6853,-1.6846,-1.6849,-1.685,-1.6852,-1.6855,-1.6856,-1.6859,-1.6842,-1.6822,-1.6865,-1.6835,-1.6859,-1.6859,-1.6867,-1.6867,-1.6949,-1.6872,-1.6872,-1.6872,-1.6872,0,-1.6894,-1.6912,-1.6887,-1.6898,-1.6919,-1.6897,-1.6918,-1.6911,-1.6905,-1.6915,-1.6891,-1.6901,-1.6877,-1.6885,-1.6872,-1.6891,-1.6893,-1.6887,-1.6882,-1.6888,-1.6888,-1.6888,-1.6884,-1.6874,-1.6873,-1.6873,-1.6873,0,-1.6959,-1.6943,-1.6961,-1.6948,-1.6945,-1.6961,-1.695,-1.6961,-1.695,-1.6963,-1.6965,-1.6948,-1.6956,-1.6939,-1.6945,-1.6936,-1.6964,-1.6955,-1.6965,-1.6962,-1.6986,-1.6984,-1.707,-1.708,-1.6998,-1.6999,-1.7,0,-1.6997,-1.701,-1.6999,-1.7004,-1.7001,-1.7009,-1.7011,-1.6991,-1.6995,-1.6992,-1.7003,-1.7009,-1.7012,-1.7027,-1.7016,-1.702,-1.7011,-1.7041,-1.7011,-1.7016,-1.701,-1.7009,-1.701,-1.7046,-1.7047,-1.7048,-1.7049,0,-1.7065,-1.7057,-1.7061,-1.7064,-1.7068,-1.7069,-1.7068,-1.7073,-1.7052,-1.7058,-1.7066,-1.7069,-1.7075,-1.7082,-1.7084,-1.708,-1.7061,-1.7059,-1.7064,-1.7069,-1.7074,-1.707,-1.698,-1.7056,-1.7055,-1.7055,-1.7054,-1.7054,-1.7117,-1.7128,-1.7122,-1.7128,-1.7126,-1.7126,-1.7135,-1.7126,-1.7132,-1.7135,-1.7124,-1.7134,-1.7131,-1.7132,-1.713,-1.7139,-1.7125,-1.7134,-1.7136,-1.7138,-1.7141,-1.7074,-1.7139,-1.7139,-1.7139,-1.7139,-1.7139,0,-1.7183,-1.7178,-1.7184,-1.7184,-1.7189,-1.7172,-1.7171,-1.7176,-1.7186,-1.7184,-1.7188,-1.7198,-1.7205,-1.7195,-1.72,-1.7209,-1.72,-1.7211,-1.7209,-1.7208,-1.7153,-1.7147,-1.7218,-1.7218,-1.7217,-1.7217,-1.7217,-1.7217,-1.7218,-1.7236,-1.7227,-1.7244,-1.7239,-1.7249,-1.725,-1.725,-1.7248,-1.726,-1.7266,-1.7259,-1.7254,-1.7259,-1.7265,-1.7262,-1.7264,-1.7278,-1.7272,-1.722,-1.7212,-1.7205,-1.7199,-1.7279,-1.7279,-1.7326,-1.7326,-1.7327]},{"header":{"parameterUnit":"m.s-1","parameterCategory":1,"la1":30.2991,"la2":30.254,"lo1":-89.0895,"lo2":-89.0444,"dy":0.0017,"dx":0.0017,"nx":28,"ny":28,"refTime":"2024-11-23T09:00:00:Z","depth":0,"parameterNumber":3,"parameterNumberName":"V-component_of_WINDS"},"data":[0,0,0,0,0,0,0,0,0,0,0,0,0,0,0,0,0,0,0,0,0,0,0,0,0,0,0,0,0,0,0,0,0,0,0,0,0,0,0,0,0,0,0,0,0,0,0,0,0,0,0,0,0,0,0,0,0,0,2.0058,2.0058,0,1.9998,1.9998,1.9997,1.9997,1.9998,1.9999,1.9999,1.9932,1.993,1.9927,0,0,0,0,0,0,0,0,0,0,0,0,0,2.0169,2.0167,2.0058,2.0058,2.0057,1.9998,1.9998,1.9997,1.9997,1.9998,1.9999,2.0,1.9933,1.993,1.9927,0,0,0,0,0,0,0,0,0,0,0,0,0,2.0116,2.0167,2.0059,2.005,2.0049,1.9999,1.9998,1.9997,1.9997,1.9998,1.9999,2.0,1.9934,1.993,1.9927,1.9879,0,0,1.9915,1.9913,0,0,0,0,0,0,0,0,2.0119,2.0112,2.0052,2.0051,2.0049,2.0007,2.0012,1.9957,1.9996,2.0016,1.9999,2.0001,1.9956,1.995,1.9936,1.9876,1.9873,1.9915,1.9912,1.9911,1.991,0,0,0,0,0,0,0,2.0123,2.0115,2.0034,2.0051,2.0049,2.0048,2.0042,2.0002,1.998,2.0015,2.0015,2.0008,1.9955,1.994,1.9934,1.9872,1.9915,1.9911,1.9909,1.9908,1.9771,1.977,0,0,0,0,0,0,2.0129,2.0118,2.0036,2.0033,2.0088,2.0045,2.0038,2.0019,1.998,1.9976,2.0007,2.0008,1.9946,1.9939,1.9932,1.9875,1.9911,1.9907,1.9905,1.9772,1.9771,1.9769,0,0,0,0,0,0,2.0131,2.0122,2.0039,2.0075,2.0065,2.0042,2.002,2.0017,2.0002,1.9974,1.997,1.9995,1.9946,1.9937,1.9893,1.9872,1.9905,1.9902,1.9774,1.9772,1.977,1.9759,0,0,0,0,0,0,2.0134,2.0123,2.0105,2.0075,2.0063,2.0002,2.0019,2.0015,1.9996,1.9997,1.9963,1.9958,1.9947,1.9899,1.9889,1.9868,1.9899,1.9776,1.9773,1.9771,1.9761,1.9757,1.9753,0,0,0,0,0,2.0138,2.0103,2.0104,2.0094,2.0041,2.0001,1.9994,1.9983,1.9994,1.9976,1.9959,1.9959,1.9876,1.9894,1.9883,1.986,1.9777,1.9774,1.9771,1.9763,1.9757,1.9753,0,0,0,0,0,0,2.0129,2.0099,2.01,2.0054,2.003,2.0001,1.9977,1.9977,1.9948,1.995,1.9936,1.9929,1.9884,1.9868,1.9888,1.9813,1.9828,1.9822,1.9825,1.982,1.9816,1.9821,1.9896,0,0,0,0,0,2.0122,2.0094,2.0068,2.003,2.0018,2.0,1.9982,1.9976,1.995,1.9939,1.9919,1.9892,1.986,1.9839,1.9808,1.9759,1.9751,1.9738,1.9734,1.9731,1.9726,1.9699,1.9693,1.9759,1.9759,1.9759,0,0,2.0106,2.0086,2.0069,2.0027,2.0008,1.9978,1.9991,1.9958,1.9935,1.9934,1.9891,1.9875,1.9844,1.9798,1.9776,1.9782,1.9706,1.9727,1.9725,1.9721,1.9695,1.9689,1.9683,1.9757,1.9758,1.9758,0,0,2.0062,2.0044,2.0011,1.9992,1.9964,1.9953,1.9945,1.9916,1.9906,1.9864,1.9862,1.9834,1.9779,1.9758,1.974,1.969,1.9689,1.968,1.9659,1.9633,1.9628,1.9623,1.9605,1.9599,1.9675,1.9675,1.9675,0,2.0045,2.0002,1.9993,1.9961,1.9943,1.9943,1.9908,1.989,1.9852,1.9839,1.9848,1.978,1.9759,1.9708,1.9696,1.9681,1.9671,1.9683,1.9629,1.9625,1.962,1.9603,1.9596,1.9674,1.9675,1.9675,1.9675,0,1.9983,1.9952,1.9928,1.9895,1.9874,1.9841,1.9827,1.9806,1.9802,1.979,1.9746,1.9722,1.9687,1.9674,1.9669,1.9622,1.9627,1.9633,1.9647,1.9613,1.9597,1.959,1.9673,1.9673,1.9674,1.9674,0,0,1.9929,1.9894,1.9885,1.987,1.984,1.9815,1.9782,1.975,1.9733,1.9707,1.9678,1.9633,1.9639,1.9618,1.9611,1.9588,1.955,1.9596,1.9595,1.9589,1.9497,1.9493,1.9486,1.955,1.9549,1.9548,1.95,0,1.9882,1.9825,1.9818,1.9766,1.9738,1.9738,1.9709,1.9687,1.9675,1.9648,1.9633,1.9602,1.9611,1.9599,1.9577,1.956,1.9532,1.9563,1.9522,1.9521,1.953,1.9477,1.9472,1.9428,1.9493,1.9492,1.9491,0,1.9819,1.9795,1.9741,1.9717,1.9704,1.9679,1.9649,1.9624,1.9598,1.9591,1.9569,1.9565,1.953,1.9547,1.9497,1.9519,1.9502,1.9491,1.9489,1.9484,1.9504,1.947,1.9413,1.9407,1.9481,1.9482,1.9483,0,1.9786,1.9739,1.9702,1.9689,1.9659,1.9641,1.9627,1.9603,1.9585,1.9558,1.9546,1.9515,1.9498,1.9473,1.9461,1.9474,1.9412,1.9428,1.9404,1.9404,1.939,1.9391,1.9329,1.938,1.938,1.938,1.938,0,1.9734,1.9701,1.9687,1.9663,1.9627,1.9618,1.9582,1.9568,1.9547,1.9521,1.9518,1.9493,1.9478,1.945,1.944,1.9401,1.9393,1.9385,1.9383,1.9385,1.9386,1.9373,1.9376,1.9378,1.9379,1.9379,1.9379,0,1.969,1.9679,1.9638,1.9614,1.9607,1.9581,1.956,1.9537,1.9526,1.9492,1.9483,1.9465,1.9432,1.9418,1.9377,1.937,1.9325,1.9325,1.9334,1.9333,1.931,1.9313,1.9238,1.9227,1.9285,1.9284,1.9284,0,1.9657,1.9633,1.9607,1.959,1.9577,1.9549,1.9531,1.9521,1.9502,1.9473,1.9453,1.9421,1.9395,1.9342,1.9324,1.9293,1.9292,1.9268,1.9287,1.9291,1.9291,1.9293,1.9291,1.9264,1.9263,1.9263,1.9263,0,1.9601,1.9597,1.9572,1.9545,1.9524,1.9502,1.948,1.9466,1.9453,1.9431,1.94,1.9379,1.9339,1.9307,1.9275,1.9259,1.9258,1.9257,1.925,1.9252,1.9258,1.9255,1.9325,1.9258,1.9259,1.9259,1.9259,1.926,1.9561,1.954,1.9519,1.9491,1.9474,1.9455,1.9432,1.9419,1.9393,1.9361,1.9357,1.9322,1.9298,1.9256,1.9239,1.9211,1.9217,1.9206,1.9203,1.9201,1.92,1.9264,1.9205,1.9205,1.9205,1.9205,1.9205,0,1.9505,1.9492,1.9466,1.9438,1.9416,1.9419,1.9396,1.9377,1.9347,1.9326,1.9301,1.9264,1.9234,1.9214,1.9183,1.9164,1.9163,1.9156,1.9157,1.9154,1.9196,1.9206,1.9158,1.9158,1.9158,1.9158,1.9158,1.9158,1.9473,1.9437,1.9431,1.9387,1.9373,1.9341,1.9328,1.9309,1.9292,1.9252,1.9228,1.9216,1.9195,1.9163,1.9135,1.9129,1.9118,1.9111,1.9106,1.9146,1.9151,1.9155,1.9164,1.9109,1.9108,1.9066,1.9065,1.9065]}]]